contact:dominique.lefevre@mio.osupytheas.fr, maurice.libes@osupytheas.fr
Project:EMSO Ligure-ouest http://www.emso-fr.org/EMSO-France
Sensor Aquadopp, line 13 Serial AQD14315 
DOI : "https://doi.org/10.17882/74513; https://doi.org/10.17882/83244" 
Title:EMSO Ligure Ouest : Data ligne ALBATROSS capteur AQUADOPP - deploiement 2021
Id,Date,Profondeur,Latitude,Longitude,X_East,Y_North,Z_Up,Amplitude_X,Amplitude_Y,Amplitude_Z,Batterie,SoundSpeed,Heading,Pitch,Roll,Pressure,Temperature,Speed,Direction
, , m, degrees North, degrees East, m.s-1, m.s-1,m.s-1, 1, 1, 1, Volt, m.s-1, degree, degree, degree, dbar, degree_C, m.s-1, degree
13,2022-03-12T22:00:00,2400.0,42.79,6.0312,0.027,-0.032,0.007,68.0,62.0,62.0,12.1,1504.8,131.8,-0.3,-0.5,2394.533,13.33,0.041,139.8
13,2022-03-12T22:30:00,2400.0,42.79,6.0312,0.052,-0.011,-0.014,68.0,62.0,63.0,12.1,1504.8,113.4,-0.3,-0.4,2394.554,13.33,0.053,101.9
13,2022-03-12T23:00:00,2400.0,42.79,6.0312,0.058,0.003,-0.004,67.0,61.0,66.0,12.1,1504.8,109.1,-0.2,-0.3,2394.593,13.33,0.058,87.0
13,2022-03-12T23:30:00,2400.0,42.79,6.0312,0.054,-0.015,-0.015,70.0,63.0,65.0,12.1,1504.8,110.8,-0.2,-0.5,2394.571,13.33,0.056,105.5
13,2022-03-13T00:00:00,2400.0,42.79,6.0312,0.039,-0.022,-0.019,68.0,62.0,65.0,12.1,1504.8,117.3,-0.3,-0.4,2394.53,13.33,0.044,119.4
13,2022-03-13T00:30:00,2400.0,42.79,6.0312,0.044,-0.001,0.0,70.0,64.0,66.0,12.1,1504.8,114.7,-0.1,-0.4,2394.585,13.33,0.044,91.3
13,2022-03-13T01:00:00,2400.0,42.79,6.0312,0.057,-0.004,-0.007,72.0,62.0,64.0,12.1,1504.8,113.4,-0.5,-0.3,2394.644,13.33,0.057,94.0
13,2022-03-13T01:30:00,2400.0,42.79,6.0312,0.056,-0.017,-0.007,69.0,61.0,63.0,12.1,1504.8,117.1,-0.2,-0.5,2394.601,13.33,0.058,106.9
13,2022-03-13T02:00:00,2400.0,42.79,6.0312,0.044,0.005,-0.008,67.0,59.0,63.0,12.1,1504.8,118.4,-0.3,-0.3,2394.582,13.33,0.044,83.5
13,2022-03-13T02:30:00,2400.0,42.79,6.0312,0.038,0.024,0.024,70.0,60.0,63.0,12.1,1504.8,109.8,-0.3,-0.3,2394.64,13.33,0.044,57.7
13,2022-03-13T03:00:00,2400.0,42.79,6.0312,0.058,-0.004,-0.004,66.0,62.0,65.0,12.1,1504.8,114.8,-0.3,-0.4,2394.664,13.33,0.058,93.9
13,2022-03-13T03:30:00,2400.0,42.79,6.0312,0.063,-0.011,0.006,68.0,63.0,64.0,12.1,1504.8,116.1,-0.4,-0.3,2394.672,13.33,0.063,99.9
13,2022-03-13T04:00:00,2400.0,42.79,6.0312,0.064,0.006,-0.027,69.0,60.0,63.0,12.1,1504.8,112.0,-0.4,-0.5,2394.664,13.33,0.064,84.6
13,2022-03-13T04:30:00,2400.0,42.79,6.0312,0.069,-0.025,-0.002,68.0,61.0,62.0,12.1,1504.8,139.8,-0.3,-0.5,2394.679,13.33,0.073,109.9
13,2022-03-13T05:00:00,2400.0,42.79,6.0312,0.055,-0.007,-0.011,69.0,62.0,64.0,12.1,1504.8,109.9,-0.3,-0.3,2394.721,13.33,0.055,97.3
13,2022-03-13T05:30:00,2400.0,42.79,6.0312,0.077,-0.009,0.016,68.0,61.0,64.0,12.1,1504.8,121.0,-0.1,-0.4,2394.618,13.33,0.077,96.7
13,2022-03-13T06:00:00,2400.0,42.79,6.0312,0.043,-0.014,-0.015,68.0,61.0,63.0,12.1,1504.8,121.1,-0.3,-0.3,2394.683,13.33,0.045,108.0
13,2022-03-13T06:30:00,2400.0,42.79,6.0312,0.022,-0.051,0.002,69.0,61.0,63.0,12.1,1504.8,135.5,-0.3,-0.5,2394.661,13.33,0.055,156.7
13,2022-03-13T07:00:00,2400.0,42.79,6.0312,0.045,-0.007,-0.02,69.0,61.0,62.0,12.1,1504.8,110.5,-0.2,-0.4,2394.679,13.33,0.045,98.8
13,2022-03-13T07:30:00,2400.0,42.79,6.0312,0.039,-0.015,-0.007,69.0,62.0,65.0,12.1,1504.8,112.4,-0.3,-0.4,2394.633,13.33,0.041,111.0
13,2022-03-13T08:00:00,2400.0,42.79,6.0312,0.043,-0.007,-0.032,68.0,60.0,61.0,12.1,1504.8,121.0,-0.2,-0.4,2394.614,13.33,0.043,99.2
13,2022-03-13T08:30:00,2400.0,42.79,6.0312,0.055,-0.007,0.007,71.0,61.0,63.0,12.1,1504.8,114.0,-0.1,-0.2,2394.623,13.33,0.055,97.3
13,2022-03-13T09:00:00,2400.0,42.79,6.0312,0.025,-0.025,-0.014,69.0,60.0,63.0,12.1,1504.8,144.1,-0.1,-0.5,2394.65,13.33,0.035,135.0
13,2022-03-13T09:30:00,2400.0,42.79,6.0312,0.027,-0.045,-0.042,66.0,60.0,61.0,12.1,1504.8,138.1,-0.3,-0.4,2394.599,13.33,0.052,149.0
13,2022-03-13T10:00:00,2400.0,42.79,6.0312,0.034,-0.015,0.005,68.0,59.0,63.0,12.1,1504.8,135.5,-0.3,-0.4,2394.613,13.33,0.037,113.8
13,2022-03-13T10:30:00,2400.0,42.79,6.0312,0.038,-0.009,-0.011,71.0,63.0,64.0,12.1,1504.8,132.3,-0.3,-0.3,2394.589,13.33,0.039,103.3
13,2022-03-13T11:00:00,2400.0,42.79,6.0312,0.019,-0.01,-0.028,71.0,62.0,63.0,12.1,1504.8,137.6,-0.1,-0.3,2394.593,13.33,0.021,117.8
13,2022-03-13T11:30:00,2400.0,42.79,6.0312,0.031,-0.022,0.002,68.0,58.0,64.0,12.1,1504.8,146.8,-0.2,-0.3,2394.606,13.33,0.038,125.4
13,2022-03-13T12:00:00,2400.0,42.79,6.0312,0.035,-0.019,-0.018,70.0,62.0,65.0,12.1,1504.8,144.7,0.0,-0.4,2394.574,13.33,0.039,118.5
13,2022-03-13T12:30:00,2400.0,42.79,6.0312,0.04,-0.015,-0.002,68.0,61.0,65.0,12.1,1504.8,143.8,-0.3,-0.4,2394.591,13.33,0.042,110.6
13,2022-03-13T13:00:00,2400.0,42.79,6.0312,0.035,-0.003,-0.016,69.0,59.0,61.0,12.1,1504.8,149.1,-0.3,-0.4,2394.53,13.33,0.035,94.9
13,2022-03-13T13:30:00,2400.0,42.79,6.0312,0.048,-0.025,0.013,71.0,61.0,64.0,12.1,1504.8,150.8,-0.2,-0.3,2394.591,13.33,0.054,117.5
13,2022-03-13T14:00:00,2400.0,42.79,6.0312,0.04,-0.011,-0.048,68.0,59.0,61.0,12.1,1504.8,141.4,-0.1,-0.3,2394.582,13.33,0.041,105.4
13,2022-03-13T14:30:00,2400.0,42.79,6.0312,0.073,-0.019,0.019,69.0,62.0,64.0,12.1,1504.8,132.8,-0.2,-0.3,2394.596,13.33,0.075,104.6
13,2022-03-13T15:00:00,2400.0,42.79,6.0312,0.054,0.002,-0.045,69.0,61.0,63.0,12.1,1504.8,140.3,-0.2,-0.5,2394.597,13.33,0.054,87.9
13,2022-03-13T15:30:00,2400.0,42.79,6.0312,0.065,0.001,0.01,68.0,63.0,62.0,12.1,1504.8,133.0,-0.5,-0.3,2394.574,13.33,0.065,89.1
13,2022-03-13T16:00:00,2400.0,42.79,6.0312,0.038,-0.004,-0.009,71.0,61.0,63.0,12.1,1504.8,138.4,-0.1,-0.4,2394.602,13.33,0.038,96.0
13,2022-03-13T16:30:00,2400.0,42.79,6.0312,0.048,-0.008,0.002,71.0,61.0,66.0,12.1,1504.8,130.9,-0.2,-0.4,2394.605,13.33,0.048,99.5
13,2022-03-13T17:00:00,2400.0,42.79,6.0312,0.059,0.006,-0.007,70.0,62.0,63.0,12.1,1504.8,129.9,-0.2,-0.3,2394.587,13.33,0.059,84.2
13,2022-03-13T17:30:00,2400.0,42.79,6.0312,0.057,-0.023,0.014,70.0,63.0,63.0,12.1,1504.8,130.8,0.0,-0.4,2394.592,13.33,0.061,112.0
13,2022-03-13T18:00:00,2400.0,42.79,6.0312,0.046,-0.029,0.002,69.0,61.0,61.0,12.1,1504.8,137.7,-0.3,-0.4,2394.607,13.33,0.054,122.2
13,2022-03-13T18:30:00,2400.0,42.79,6.0312,0.042,-0.042,-0.014,71.0,62.0,66.0,12.1,1504.8,149.4,-0.1,-0.5,2394.602,13.33,0.059,135.0
13,2022-03-13T19:00:00,2400.0,42.79,6.0312,0.029,-0.021,0.008,70.0,62.0,64.0,12.1,1504.8,136.2,-0.3,-0.3,2394.53,13.33,0.035,125.9
13,2022-03-13T19:30:00,2400.0,42.79,6.0312,0.036,-0.047,0.018,71.0,64.0,64.0,12.1,1504.8,137.4,-0.2,-0.3,2394.551,13.33,0.059,142.5
13,2022-03-13T20:00:00,2400.0,42.79,6.0312,0.031,-0.025,-0.018,69.0,61.0,64.0,12.1,1504.8,142.0,-0.2,-0.3,2394.539,13.33,0.039,128.9
13,2022-03-13T20:30:00,2400.0,42.79,6.0312,0.021,-0.029,0.001,67.0,60.0,64.0,12.1,1504.8,139.5,-0.1,-0.4,2394.57,13.33,0.035,144.1
13,2022-03-13T21:00:00,2400.0,42.79,6.0312,0.021,-0.026,-0.024,66.0,60.0,65.0,12.1,1504.8,139.3,-0.1,-0.3,2394.568,13.33,0.033,141.1
13,2022-03-13T21:30:00,2400.0,42.79,6.0312,0.026,-0.033,-0.015,70.0,60.0,64.0,12.1,1504.8,132.2,-0.1,-0.3,2394.497,13.33,0.042,141.8
